TimeMDT,TemperatureF,Dew PointF,Humidity,Sea Level PressureIn,VisibilityMPH,Wind Direction,Wind SpeedMPH,Gust SpeedMPH,PrecipitationIn,Events,Conditions,WindDirDegrees,DateUTC
12:15 AM,30.2,17.6,60,30.19,10.0,NNW,5.8,-,N/A,,Mostly Cloudy,340,2013-03-12 06:15:00
12:35 AM,30.2,17.6,60,30.20,10.0,NNW,6.9,-,N/A,,Partly Cloudy,330,2013-03-12 06:35:00
12:55 AM,28.4,17.6,64,30.20,10.0,NNW,3.5,-,N/A,,Mostly Cloudy,330,2013-03-12 06:55:00
1:15 AM,30.2,19.4,64,30.20,10.0,NNE,3.5,-,N/A,,Scattered Clouds,30,2013-03-12 07:15:00
1:35 AM,28.4,19.4,69,30.20,10.0,Calm,Calm,-,N/A,,Scattered Clouds,0,2013-03-12 07:35:00
2:15 AM,28.4,19.4,69,30.20,10.0,Calm,Calm,-,N/A,,Scattered Clouds,0,2013-03-12 08:15:00
2:35 AM,26.6,15.8,64,30.20,10.0,Calm,Calm,-,N/A,,Partly Cloudy,0,2013-03-12 08:35:00
2:55 AM,24.8,15.8,69,30.21,10.0,Calm,Calm,-,N/A,,Partly Cloudy,0,2013-03-12 08:55:00
3:15 AM,26.6,17.6,69,30.20,10.0,Calm,Calm,-,N/A,,Clear,0,2013-03-12 09:15:00
3:35 AM,23.0,14.0,68,30.20,10.0,Calm,Calm,-,N/A,,Clear,0,2013-03-12 09:35:00
3:55 AM,24.8,15.8,69,30.21,10.0,Calm,Calm,-,N/A,,Clear,0,2013-03-12 09:55:00
4:15 AM,23.0,15.8,74,30.21,10.0,ENE,6.9,-,N/A,,Clear,70,2013-03-12 10:15:00
4:35 AM,21.2,15.8,80,30.21,10.0,Calm,Calm,-,N/A,,Clear,0,2013-03-12 10:35:00
4:55 AM,21.2,17.6,86,30.21,10.0,Calm,Calm,-,N/A,,Mostly Cloudy,0,2013-03-12 10:55:00
5:15 AM,19.4,12.2,74,30.22,10.0,East,4.6,-,N/A,,Overcast,80,2013-03-12 11:15:00
5:35 AM,19.4,15.8,86,30.23,10.0,NE,4.6,-,N/A,,Overcast,40,2013-03-12 11:35:00
5:55 AM,21.2,17.6,86,30.23,10.0,Calm,Calm,-,N/A,,Mostly Cloudy,0,2013-03-12 11:55:00
6:15 AM,21.2,15.8,80,30.24,10.0,NE,4.6,-,N/A,,Mostly Cloudy,40,2013-03-12 12:15:00
6:35 AM,21.2,15.8,80,30.24,10.0,Calm,Calm,-,N/A,,Mostly Cloudy,0,2013-03-12 12:35:00
6:55 AM,19.4,10.4,68,30.25,10.0,East,3.5,-,N/A,,Mostly Cloudy,90,2013-03-12 12:55:00
7:15 AM,17.6,12.2,79,30.25,10.0,Calm,Calm,-,N/A,,Scattered Clouds,0,2013-03-12 13:15:00
7:55 AM,21.2,17.6,86,30.25,10.0,North,6.9,-,N/A,,Clear,350,2013-03-12 13:55:00
8:15 AM,21.2,19.4,93,30.26,10.0,NE,4.6,-,N/A,,Clear,50,2013-03-12 14:15:00
8:35 AM,-9999,-9999,N/A,30.25,10.0,East,3.5,-,N/A,,Clear,80,2013-03-12 14:35:00
8:55 AM,-9999,-9999,N/A,30.27,10.0,SSE,3.5,-,N/A,,Clear,160,2013-03-12 14:55:00
9:15 AM,-9999,-9999,N/A,30.28,10.0,Calm,Calm,-,N/A,,Clear,0,2013-03-12 15:15:00
9:35 AM,-9999,-9999,N/A,30.29,10.0,Calm,Calm,-,N/A,,Clear,0,2013-03-12 15:35:00
9:55 AM,33.8,26.6,75,30.30,10.0,North,5.8,-,N/A,,Clear,350,2013-03-12 15:55:00
10:15 AM,35.6,26.6,70,30.31,10.0,East,3.5,-,N/A,,Scattered Clouds,100,2013-03-12 16:15:00
10:35 AM,33.8,21.2,60,30.31,10.0,Calm,Calm,-,N/A,,Overcast,0,2013-03-12 16:35:00
10:55 AM,35.6,24.8,65,30.31,10.0,Calm,Calm,-,N/A,,Mostly Cloudy,0,2013-03-12 16:55:00
11:15 AM,39.2,26.6,61,30.32,10.0,Calm,Calm,-,N/A,,Mostly Cloudy,0,2013-03-12 17:15:00
11:55 AM,44.6,26.6,49,30.31,10.0,SSW,11.5,-,N/A,,Scattered Clouds,200,2013-03-12 17:55:00
12:15 PM,42.8,24.8,49,30.30,10.0,SSW,9.2,-,N/A,,Mostly Cloudy,210,2013-03-12 18:15:00
12:35 PM,44.6,24.8,46,30.29,10.0,SSW,8.1,-,N/A,,Scattered Clouds,210,2013-03-12 18:35:00
12:55 PM,44.6,26.6,49,30.30,10.0,SW,10.4,-,N/A,,Mostly Cloudy,220,2013-03-12 18:55:00
1:15 PM,44.6,24.8,46,30.30,10.0,WSW,9.2,-,N/A,,Mostly Cloudy,240,2013-03-12 19:15:00
1:35 PM,44.6,24.8,46,30.31,10.0,WSW,3.5,-,N/A,,Partly Cloudy,240,2013-03-12 19:35:00
1:55 PM,44.6,24.8,46,30.30,10.0,South,5.8,-,N/A,,Clear,180,2013-03-12 19:55:00
2:15 PM,44.6,24.8,46,30.30,10.0,WSW,9.2,-,N/A,,Clear,240,2013-03-12 20:15:00
2:35 PM,46.4,24.8,43,30.30,10.0,South,5.8,-,N/A,,Partly Cloudy,180,2013-03-12 20:35:00
2:55 PM,46.4,24.8,43,30.29,10.0,SW,9.2,-,N/A,,Mostly Cloudy,220,2013-03-12 20:55:00
3:15 PM,46.4,23.0,40,30.29,10.0,SSW,11.5,16.1,N/A,,Scattered Clouds,210,2013-03-12 21:15:00
3:35 PM,46.4,23.0,40,30.29,10.0,WSW,15.0,18.4,N/A,,Clear,240,2013-03-12 21:35:00
3:55 PM,44.6,24.8,46,30.29,10.0,WSW,12.7,17.3,N/A,,Clear,240,2013-03-12 21:55:00
4:15 PM,44.6,23.0,43,30.29,10.0,SW,13.8,17.3,N/A,,Clear,230,2013-03-12 22:15:00
4:35 PM,44.6,23.0,43,30.28,10.0,SW,10.4,-,N/A,,Clear,230,2013-03-12 22:35:00
4:55 PM,44.6,21.2,39,30.29,10.0,SW,9.2,-,N/A,,Clear,230,2013-03-12 22:55:00
5:15 PM,44.6,24.8,46,30.28,10.0,WSW,10.4,-,N/A,,Clear,240,2013-03-12 23:15:00
5:35 PM,44.6,21.2,39,30.28,10.0,SW,10.4,-,N/A,,Clear,230,2013-03-12 23:35:00
5:55 PM,44.6,23.0,43,30.28,10.0,SW,6.9,-,N/A,,Clear,230,2013-03-12 23:55:00
6:15 PM,42.8,23.0,46,30.29,10.0,WSW,8.1,-,N/A,,Clear,240,2013-03-13 00:15:00
6:35 PM,42.8,21.2,42,30.29,10.0,SW,9.2,-,N/A,,Clear,230,2013-03-13 00:35:00
6:55 PM,42.8,24.8,49,30.30,10.0,WSW,8.1,-,N/A,,Clear,250,2013-03-13 00:55:00
7:15 PM,41.0,24.8,53,30.30,10.0,West,4.6,-,N/A,,Clear,270,2013-03-13 01:15:00
7:55 PM,39.2,24.8,56,30.32,10.0,West,6.9,-,N/A,,Clear,280,2013-03-13 01:55:00
8:15 PM,39.2,21.2,49,30.32,10.0,East,4.6,-,N/A,,Clear,100,2013-03-13 02:15:00
8:35 PM,37.4,21.2,52,30.32,10.0,NNW,5.8,-,N/A,,Clear,330,2013-03-13 02:35:00
8:55 PM,35.6,21.2,56,30.32,10.0,East,3.5,-,N/A,,Clear,80,2013-03-13 02:55:00
9:15 PM,35.6,21.2,56,30.33,10.0,Calm,Calm,-,N/A,,Clear,0,2013-03-13 03:15:00
9:35 PM,33.8,19.4,56,30.33,10.0,North,4.6,-,N/A,,Clear,350,2013-03-13 03:35:00
9:55 PM,33.8,21.2,60,30.34,10.0,NNW,3.5,-,N/A,,Clear,340,2013-03-13 03:55:00
10:15 PM,32.0,19.4,60,30.36,10.0,Calm,Calm,-,N/A,,Clear,0,2013-03-13 04:15:00
10:35 PM,30.2,19.4,64,30.36,10.0,Calm,Calm,-,N/A,,Clear,0,2013-03-13 04:35:00
10:55 PM,28.4,19.4,69,30.37,10.0,Calm,Calm,-,N/A,,Clear,0,2013-03-13 04:55:00
11:15 PM,28.4,19.4,69,30.37,10.0,Calm,Calm,-,N/A,,Clear,0,2013-03-13 05:15:00
11:55 PM,28.4,19.4,69,30.38,10.0,Calm,Calm,-,N/A,,Clear,0,2013-03-13 05:55:00